| time (UTC) | temp C | wind direction | speed KPH | gust KPH | rain 1hr cm | rain 24hr cm | rain mn cm | humidity % | barometer mb |
| 20260502130503 | 18 | 124 | 6.4 | 19.3 | 0.00 | 0.00 | 0.00 | 58 | 1020.1 |
| 20260502123504 | 18 | 115 | 4.8 | 12.9 | 0.00 | 0.00 | 0.00 | 58 | 1020.5 |
| 20260502123004 | 18 | 119 | 4.8 | 12.9 | 0.00 | 0.00 | 0.00 | 57 | 1020.4 |
| 20260502122714 | 18 | 124 | 4.8 | 12.9 | 0.00 | 0.00 | 0.00 | 57 | 1020.5 |
| 20260502122003 | 18 | 108 | 1.6 | 9.7 | 0.00 | 0.00 | 0.00 | 58 | 1020.7 |
| 20260502121503 | 17 | 118 | 1.6 | 8.0 | 0.00 | 0.00 | 0.00 | 57 | 1020.7 |
| 20260502121003 | 17 | 113 | 1.6 | 8.0 | 0.00 | 0.00 | 0.00 | 58 | 1020.9 |
| 20260502120503 | 17 | 115 | 3.2 | 8.0 | 0.00 | 0.00 | 0.00 | 57 | 1020.9 |
| 20260502115503 | 17 | 100 | 4.8 | 12.9 | 0.00 | 0.00 | 0.00 | 58 | 1020.9 |
| 20260502115004 | 17 | 106 | 3.2 | 9.7 | 0.00 | 0.00 | 0.00 | 62 | 1021.0 |
| 20260502114503 | 17 | 102 | 0.0 | 6.4 | 0.00 | 0.00 | 0.00 | 64 | 1021.0 |
| 20260502114003 | 16 | 0 | 0.0 | 0.0 | 0.00 | 0.00 | 0.00 | 67 | 1021.1 |
| 20260502113714 | 16 | 0 | 0.0 | 0.0 | 0.00 | 0.00 | 0.00 | 67 | 1021.1 |
| 20260502113215 | 16 | 0 | 0.0 | 0.0 | 0.00 | 0.00 | 0.00 | 68 | 1021.2 |
| 20260502112503 | 16 | 0 | 0.0 | 0.0 | 0.00 | 0.00 | 0.00 | 69 | 1021.3 |
| 20260502112004 | 16 | 40 | 0.0 | 1.6 | 0.00 | 0.00 | 0.00 | 69 | 1021.4 |
| 20260502111714 | 16 | 21 | 0.0 | 4.8 | 0.00 | 0.00 | 0.00 | 69 | 1021.4 |
| 20260502111003 | 16 | 252 | 1.6 | 4.8 | 0.00 | 0.00 | 0.00 | 70 | 1021.4 |
| 20260502110714 | 16 | 238 | 1.6 | 4.8 | 0.00 | 0.00 | 0.00 | 70 | 1021.5 |
| 20260502110005 | 16 | 249 | 0.0 | 3.2 | 0.00 | 0.00 | 0.00 | 70 | 1021.6 |
| 20260502105504 | 16 | 249 | 0.0 | 3.2 | 0.00 | 0.00 | 0.00 | 69 | 1021.7 |
| 20260502105003 | 16 | 249 | 0.0 | 3.2 | 0.00 | 0.00 | 0.00 | 69 | 1021.8 |
| 20260502104504 | 15 | 249 | 1.6 | 3.2 | 0.00 | 0.00 | 0.00 | 71 | 1021.7 |
| 20260502104003 | 15 | 249 | 1.6 | 4.8 | 0.00 | 0.00 | 0.00 | 72 | 1021.8 |
| 20260502103503 | 15 | 249 | 1.6 | 4.8 | 0.00 | 0.00 | 0.00 | 76 | 1021.7 |
| 20260502103215 | 15 | 258 | 1.6 | 4.8 | 0.00 | 0.00 | 0.00 | 77 | 1021.7 |
| 20260502102503 | 15 | 275 | 1.6 | 4.8 | 0.00 | 0.00 | 0.00 | 78 | 1021.8 |
| 20260502102003 | 15 | 277 | 1.6 | 4.8 | 0.00 | 0.00 | 0.00 | 79 | 1021.9 |
| 20260502101503 | 14 | 279 | 4.8 | 9.7 | 0.00 | 0.00 | 0.00 | 82 | 1021.9 |
| 20260502101213 | 14 | 280 | 4.8 | 9.7 | 0.00 | 0.00 | 0.00 | 83 | 1022.0 |
| 20260502100503 | 14 | 291 | 4.8 | 9.7 | 0.00 | 0.00 | 0.00 | 84 | 1022.1 |
| 20260502100214 | 14 | 295 | 3.2 | 9.7 | 0.00 | 0.00 | 0.00 | 85 | 1022.1 |
| 20260502091503 | 14 | 135 | 0.0 | 3.2 | 0.00 | 0.00 | 0.00 | 84 | 1022.2 |
| 20260502091003 | 14 | 134 | 0.0 | 1.6 | 0.00 | 0.00 | 0.00 | 84 | 1022.2 |
| 20260502090504 | 13 | 134 | 0.0 | 3.2 | 0.00 | 0.00 | 0.00 | 84 | 1022.2 |
| 20260502071503 | 12 | 109 | 0.0 | 3.2 | 0.00 | 0.00 | 0.00 | 90 | 1022.0 |
| 20260502071004 | 12 | 8 | 0.0 | 3.2 | 0.00 | 0.00 | 0.00 | 91 | 1022.1 |
| 20260502070503 | 12 | 315 | 0.0 | 3.2 | 0.00 | 0.00 | 0.00 | 90 | 1022.1 |
| 20260502070004 | 12 | 296 | 1.6 | 3.2 | 0.00 | 0.00 | 0.00 | 91 | 1022.0 |
| 20260502065504 | 12 | 296 | 1.6 | 3.2 | 0.00 | 0.00 | 0.00 | 90 | 1022.2 |
| 20260502065004 | 12 | 297 | 0.0 | 3.2 | 0.00 | 0.00 | 0.00 | 90 | 1022.1 |
| 20260502064503 | 12 | 297 | 0.0 | 1.6 | 0.00 | 0.00 | 0.00 | 90 | 1022.1 |
| 20260502064003 | 12 | 297 | 0.0 | 3.2 | 0.00 | 0.00 | 0.00 | 91 | 1022.1 |
| 20260502063504 | 12 | 296 | 1.6 | 3.2 | 0.00 | 0.00 | 0.00 | 90 | 1022.1 |
| 20260502063004 | 12 | 296 | 1.6 | 3.2 | 0.00 | 0.00 | 0.00 | 91 | 1022.2 |
| 20260502062503 | 12 | 296 | 1.6 | 1.6 | 0.00 | 0.00 | 0.00 | 92 | 1022.1 |
| 20260502062003 | 12 | 301 | 1.6 | 4.8 | 0.00 | 0.00 | 0.00 | 93 | 1022.1 |
| 20260502061504 | 11 | 350 | 3.2 | 4.8 | 0.00 | 0.00 | 0.00 | 93 | 1022.1 |
| 20260502061213 | 11 | 12 | 3.2 | 4.8 | 0.00 | 0.00 | 0.00 | 93 | 1022.1 |
| 20260502060503 | 11 | 34 | 1.6 | 4.8 | 0.00 | 0.00 | 0.00 | 93 | 1022.1 |
| 20260502060215 | 11 | 37 | 0.0 | 3.2 | 0.00 | 0.00 | 0.00 | 94 | 1022.1 |
| 20260502055714 | 11 | 38 | 0.0 | 1.6 | 0.00 | 0.00 | 0.00 | 94 | 1022.0 |
| 20260502055003 | 11 | 38 | 0.0 | 1.6 | 0.00 | 0.00 | 0.00 | 94 | 1022.0 |
| 20260502054503 | 11 | 38 | 0.0 | 1.6 | 0.00 | 0.00 | 0.00 | 94 | 1022.0 |
| 20260502054003 | 11 | 15 | 1.6 | 6.4 | 0.00 | 0.00 | 0.00 | 94 | 1021.9 |
| 20260502053503 | 11 | 307 | 4.8 | 6.4 | 0.00 | 0.00 | 0.00 | 94 | 1021.8 |
| 20260502053004 | 11 | 280 | 4.8 | 9.7 | 0.00 | 0.00 | 0.00 | 94 | 1021.8 |
| 20260502052503 | 11 | 280 | 3.2 | 9.7 | 0.00 | 0.00 | 0.00 | 94 | 1021.7 |
| 20260502052003 | 11 | 280 | 0.0 | 6.4 | 0.00 | 0.00 | 0.00 | 94 | 1021.8 |
| 20260502051503 | 11 | 281 | 1.6 | 4.8 | 0.00 | 0.00 | 0.00 | 94 | 1021.8 |
| 20260502051003 | 11 | 281 | 1.6 | 4.8 | 0.00 | 0.00 | 0.00 | 94 | 1021.9 |
| 20260502050503 | 11 | 281 | 0.0 | 4.8 | 0.00 | 0.00 | 0.00 | 94 | 1021.8 |
| 20260502050004 | 11 | 281 | 0.0 | 1.6 | 0.00 | 0.00 | 0.00 | 94 | 1021.8 |
| 20260502045504 | 11 | 278 | 1.6 | 4.8 | 0.00 | 0.00 | 0.00 | 94 | 1021.7 |
| 20260502045003 | 11 | 276 | 1.6 | 4.8 | 0.00 | 0.00 | 0.00 | 94 | 1021.7 |
| 20260502044713 | 11 | 275 | 1.6 | 4.8 | 0.00 | 0.00 | 0.00 | 94 | 1021.7 |
| 20260502044214 | 11 | 275 | 1.6 | 3.2 | 0.00 | 0.00 | 0.00 | 94 | 1021.6 |
| 20260502043503 | 11 | 0 | 0.0 | 0.0 | 0.00 | 0.00 | 0.00 | 94 | 1021.7 |
| 20260502043004 | 11 | 0 | 0.0 | 0.0 | 0.00 | 0.00 | 0.00 | 94 | 1021.7 |
| 20260502042503 | 11 | 0 | 0.0 | 0.0 | 0.00 | 0.00 | 0.00 | 94 | 1021.8 |
| 20260502042003 | 11 | 0 | 0.0 | 0.0 | 0.00 | 0.00 | 0.00 | 94 | 1021.7 |
| 20260502041503 | 11 | 0 | 0.0 | 0.0 | 0.00 | 0.00 | 0.00 | 94 | 1021.8 |
| 20260502041214 | 11 | 0 | 0.0 | 0.0 | 0.00 | 0.00 | 0.00 | 94 | 1021.9 |
| 20260502040503 | 11 | 275 | 0.0 | 3.2 | 0.00 | 0.00 | 0.00 | 94 | 1021.8 |
| 20260502040004 | 11 | 275 | 1.6 | 3.2 | 0.00 | 0.00 | 0.00 | 94 | 1021.8 |
| 20260502035503 | 11 | 275 | 1.6 | 3.2 | 0.00 | 0.00 | 0.00 | 94 | 1021.8 |
| 20260502035214 | 11 | 275 | 1.6 | 3.2 | 0.00 | 0.00 | 0.00 | 94 | 1021.8 |
| 20260502034504 | 11 | 275 | 3.2 | 4.8 | 0.00 | 0.00 | 0.00 | 93 | 1021.8 |
| 20260502034004 | 11 | 275 | 3.2 | 4.8 | 0.00 | 0.00 | 0.00 | 93 | 1021.8 |
| 20260502033503 | 11 | 275 | 1.6 | 4.8 | 0.00 | 0.00 | 0.00 | 93 | 1021.8 |
| 20260502033004 | 11 | 274 | 1.6 | 4.8 | 0.00 | 0.00 | 0.00 | 93 | 1021.9 |
| 20260502032504 | 11 | 274 | 3.2 | 4.8 | 0.00 | 0.00 | 0.00 | 93 | 1022.0 |
| 20260502032003 | 11 | 273 | 1.6 | 4.8 | 0.00 | 0.00 | 0.00 | 93 | 1022.0 |
| 20260502031503 | 11 | 273 | 0.0 | 3.2 | 0.00 | 0.00 | 0.00 | 92 | 1021.9 |
| 20260502031003 | 11 | 273 | 0.0 | 1.6 | 0.00 | 0.00 | 0.00 | 92 | 1022.0 |
| 20260502030503 | 11 | 0 | 0.0 | 0.0 | 0.00 | 0.00 | 0.00 | 92 | 1022.0 |
| 20260502030004 | 11 | 0 | 0.0 | 0.0 | 0.00 | 0.00 | 0.00 | 92 | 1022.0 |
| 20260502025504 | 11 | 0 | 0.0 | 0.0 | 0.00 | 0.00 | 0.00 | 92 | 1022.1 |
| 20260502025214 | 11 | 0 | 0.0 | 0.0 | 0.00 | 0.00 | 0.00 | 92 | 1022.1 |
| 20260502024504 | 11 | 273 | 0.0 | 3.2 | 0.00 | 0.00 | 0.00 | 92 | 1022.1 |
| 20260502024004 | 11 | 286 | 3.2 | 8.0 | 0.00 | 0.00 | 0.00 | 92 | 1022.1 |
| 20260502023503 | 11 | 293 | 3.2 | 8.0 | 0.00 | 0.00 | 0.00 | 92 | 1022.0 |
| 20260502023214 | 11 | 302 | 3.2 | 8.0 | 0.00 | 0.00 | 0.00 | 92 | 1021.9 |
| 20260502022504 | 10 | 296 | 3.2 | 8.0 | 0.00 | 0.00 | 0.00 | 92 | 1022.0 |
| 20260502022003 | 10 | 278 | 4.8 | 8.0 | 0.00 | 0.00 | 0.00 | 92 | 1022.0 |
| 20260502021503 | 10 | 273 | 1.6 | 8.0 | 0.00 | 0.00 | 0.00 | 92 | 1022.0 |
| 20260502021213 | 10 | 290 | 1.6 | 4.8 | 0.00 | 0.00 | 0.00 | 92 | 1022.0 |
| 20260502020503 | 11 | 321 | 3.2 | 6.4 | 0.00 | 0.00 | 0.00 | 92 | 1022.1 |
| 20260502020005 | 10 | 311 | 4.8 | 6.4 | 0.00 | 0.00 | 0.00 | 93 | 1022.1 |
| 20260502015504 | 10 | 295 | 3.2 | 6.4 | 0.00 | 0.00 | 0.00 | 94 | 1022.4 |
| 20260502015004 | 10 | 278 | 1.6 | 4.8 | 0.00 | 0.00 | 0.00 | 94 | 1022.4 |
| 20260502014503 | 10 | 275 | 1.6 | 4.8 | 0.00 | 0.00 | 0.00 | 94 | 1022.5 |
| 20260502014003 | 10 | 275 | 1.6 | 3.2 | 0.00 | 0.00 | 0.00 | 94 | 1022.6 |
| 20260502013504 | 10 | 275 | 3.2 | 4.8 | 0.00 | 0.00 | 0.00 | 94 | 1022.6 |
| 20260502013213 | 10 | 275 | 3.2 | 4.8 | 0.00 | 0.00 | 0.00 | 94 | 1022.6 |
| 20260502012503 | 10 | 278 | 1.6 | 3.2 | 0.00 | 0.00 | 0.00 | 95 | 1022.7 |
| 20260502012003 | 10 | 281 | 0.0 | 3.2 | 0.00 | 0.00 | 0.00 | 95 | 1022.7 |
| 20260502011503 | 10 | 297 | 0.0 | 3.2 | 0.00 | 0.00 | 0.00 | 95 | 1022.7 |
| 20260502011003 | 9 | 317 | 1.6 | 3.2 | 0.00 | 0.00 | 0.00 | 95 | 1022.8 |
| 20260502010503 | 9 | 308 | 3.2 | 8.0 | 0.00 | 0.00 | 0.00 | 95 | 1022.8 |
| 20260502010004 | 9 | 286 | 6.4 | 11.3 | 0.00 | 0.00 | 0.00 | 95 | 1022.8 |
| 20260502005503 | 9 | 278 | 6.4 | 11.3 | 0.00 | 0.00 | 0.00 | 95 | 1022.8 |
| 20260502005003 | 9 | 277 | 4.8 | 11.3 | 0.00 | 0.00 | 0.00 | 95 | 1022.7 |
| 20260502004504 | 8 | 278 | 6.4 | 11.3 | 0.00 | 0.00 | 0.00 | 95 | 1022.8 |
| 20260502004003 | 8 | 278 | 6.4 | 11.3 | 0.00 | 0.00 | 0.00 | 95 | 1022.9 |
| 20260502003503 | 8 | 282 | 4.8 | 9.7 | 0.00 | 0.00 | 0.00 | 95 | 1023.0 |
| 20260502003004 | 8 | 286 | 4.8 | 9.7 | 0.00 | 0.00 | 0.00 | 95 | 1023.0 |
| 20260502002504 | 8 | 285 | 4.8 | 9.7 | 0.00 | 0.00 | 0.00 | 95 | 1023.2 |
| 20260502002215 | 8 | 283 | 4.8 | 6.4 | 0.00 | 0.00 | 0.00 | 95 | 1023.2 |
| 20260502001503 | 8 | 284 | 3.2 | 6.4 | 0.00 | 0.00 | 0.00 | 95 | 1023.2 |
| 20260502001003 | 8 | 284 | 3.2 | 4.8 | 0.00 | 0.00 | 0.00 | 95 | 1023.2 |
| 20260502000714 | 8 | 284 | 1.6 | 4.8 | 0.00 | 0.00 | 0.00 | 95 | 1023.1 |
| 20260502000004 | 8 | 287 | 3.2 | 6.4 | 0.00 | 0.00 | 0.00 | 95 | 1023.3 |
| 20260501235714 | 8 | 288 | 4.8 | 6.4 | 0.00 | 0.00 | 0.00 | 95 | 1023.3 |
| 20260501235003 | 8 | 291 | 3.2 | 6.4 | 0.00 | 0.00 | 0.00 | 95 | 1023.3 |
| 20260501234714 | 8 | 290 | 3.2 | 6.4 | 0.00 | 0.00 | 0.00 | 95 | 1023.4 |
| 20260501234003 | 8 | 290 | 3.2 | 6.4 | 0.00 | 0.00 | 0.00 | 95 | 1023.3 |
| 20260501233504 | 8 | 288 | 1.6 | 6.4 | 0.00 | 0.00 | 0.00 | 95 | 1023.4 |
| 20260501233004 | 8 | 286 | 3.2 | 6.4 | 0.00 | 0.00 | 0.00 | 95 | 1023.3 |
| 20260501232503 | 8 | 286 | 3.2 | 6.4 | 0.00 | 0.00 | 0.00 | 95 | 1023.3 |
| 20260501232214 | 8 | 286 | 3.2 | 6.4 | 0.00 | 0.00 | 0.00 | 95 | 1023.3 |
| 20260501231504 | 8 | 285 | 3.2 | 6.4 | 0.00 | 0.00 | 0.00 | 95 | 1023.3 |
| 20260501231003 | 8 | 283 | 4.8 | 6.4 | 0.00 | 0.00 | 0.00 | 94 | 1023.3 |
| 20260501230503 | 8 | 279 | 3.2 | 6.4 | 0.00 | 0.00 | 0.00 | 94 | 1023.3 |
| 20260501230004 | 8 | 276 | 1.6 | 6.4 | 0.00 | 0.00 | 0.00 | 94 | 1023.3 |
| 20260501225503 | 8 | 282 | 3.2 | 6.4 | 0.00 | 0.00 | 0.00 | 94 | 1023.3 |
| 20260501225003 | 8 | 289 | 4.8 | 6.4 | 0.00 | 0.00 | 0.00 | 94 | 1023.3 |
| 20260501224503 | 8 | 294 | 4.8 | 6.4 | 0.00 | 0.00 | 0.00 | 94 | 1023.3 |
| 20260501224004 | 8 | 289 | 4.8 | 6.4 | 0.00 | 0.00 | 0.00 | 94 | 1023.2 |
| 20260501223503 | 8 | 282 | 3.2 | 6.4 | 0.00 | 0.00 | 0.00 | 94 | 1023.2 |
| 20260501223217 | 8 | 282 | 3.2 | 4.8 | 0.00 | 0.00 | 0.00 | 94 | 1023.2 |
| 20260501222713 | 8 | 282 | 1.6 | 4.8 | 0.00 | 0.00 | 0.00 | 94 | 1023.2 |
| 20260501222214 | 8 | 282 | 0.0 | 3.2 | 0.00 | 0.00 | 0.00 | 94 | 1023.2 |
| 20260501221503 | 8 | 281 | 3.2 | 9.7 | 0.00 | 0.00 | 0.00 | 94 | 1023.1 |
| 20260501221214 | 8 | 281 | 4.8 | 9.7 | 0.00 | 0.00 | 0.00 | 93 | 1023.2 |
| 20260501220503 | 9 | 287 | 3.2 | 6.4 | 0.00 | 0.00 | 0.00 | 93 | 1023.2 |
| 20260501220216 | 9 | 290 | 3.2 | 6.4 | 0.00 | 0.00 | 0.00 | 93 | 1023.1 |
| 20260501215713 | 9 | 292 | 1.6 | 3.2 | 0.00 | 0.00 | 0.00 | 93 | 1023.2 |
| 20260501215004 | 9 | 296 | 1.6 | 6.4 | 0.00 | 0.00 | 0.00 | 93 | 1023.2 |
| 20260501214504 | 9 | 298 | 3.2 | 8.0 | 0.00 | 0.00 | 0.00 | 93 | 1023.2 |
| 20260501214003 | 10 | 298 | 3.2 | 8.0 | 0.00 | 0.00 | 0.00 | 93 | 1023.2 |
| 20260501213503 | 9 | 295 | 3.2 | 4.8 | 0.00 | 0.00 | 0.00 | 93 | 1023.2 |
| 20260501213214 | 9 | 293 | 3.2 | 4.8 | 0.00 | 0.00 | 0.00 | 92 | 1023.2 |
| 20260501212715 | 10 | 286 | 3.2 | 4.8 | 0.00 | 0.00 | 0.00 | 92 | 1023.2 |
| 20260501212003 | 10 | 282 | 1.6 | 4.8 | 0.00 | 0.00 | 0.00 | 92 | 1023.2 |
| 20260501211503 | 10 | 282 | 1.6 | 3.2 | 0.00 | 0.00 | 0.00 | 92 | 1023.2 |
| 20260501211003 | 10 | 282 | 1.6 | 4.8 | 0.00 | 0.00 | 0.00 | 91 | 1023.3 |
| 20260501210503 | 10 | 282 | 0.0 | 4.8 | 0.00 | 0.00 | 0.00 | 91 | 1023.3 |
| 20260501210004 | 10 | 0 | 0.0 | 0.0 | 0.00 | 0.00 | 0.00 | 91 | 1023.3 |
| 20260501205503 | 10 | 0 | 0.0 | 0.0 | 0.00 | 0.00 | 0.00 | 91 | 1023.2 |
| 20260501205003 | 10 | 0 | 0.0 | 0.0 | 0.00 | 0.00 | 0.00 | 90 | 1023.3 |
| 20260501204503 | 10 | 0 | 0.0 | 0.0 | 0.00 | 0.00 | 0.00 | 90 | 1023.3 |
| 20260501204003 | 10 | 0 | 0.0 | 0.0 | 0.00 | 0.00 | 0.00 | 90 | 1023.3 |
| 20260501203503 | 11 | 0 | 0.0 | 0.0 | 0.00 | 0.00 | 0.00 | 90 | 1023.2 |
| 20260501203004 | 11 | 0 | 0.0 | 0.0 | 0.00 | 0.00 | 0.00 | 90 | 1023.2 |
| 20260501202503 | 11 | 0 | 0.0 | 0.0 | 0.00 | 0.00 | 0.00 | 89 | 1023.2 |
| 20260501202003 | 11 | 0 | 0.0 | 0.0 | 0.00 | 0.00 | 0.00 | 89 | 1023.1 |
| 20260501201714 | 11 | 0 | 0.0 | 0.0 | 0.00 | 0.00 | 0.00 | 89 | 1023.1 |
| 20260501201004 | 11 | 0 | 0.0 | 0.0 | 0.00 | 0.00 | 0.00 | 88 | 1023.0 |
| 20260501200503 | 11 | 0 | 0.0 | 0.0 | 0.00 | 0.00 | 0.00 | 88 | 1022.9 |
| 20260501200004 | 11 | 0 | 0.0 | 0.0 | 0.00 | 0.00 | 0.00 | 88 | 1022.9 |
| 20260501195503 | 11 | 0 | 0.0 | 0.0 | 0.00 | 0.00 | 0.00 | 87 | 1022.9 |
| 20260501195003 | 11 | 0 | 0.0 | 0.0 | 0.00 | 0.00 | 0.00 | 87 | 1022.8 |
| 20260501194503 | 12 | 0 | 0.0 | 0.0 | 0.00 | 0.00 | 0.00 | 87 | 1022.8 |
| 20260501194003 | 12 | 0 | 0.0 | 0.0 | 0.00 | 0.00 | 0.00 | 86 | 1022.8 |
| 20260501193714 | 12 | 0 | 0.0 | 0.0 | 0.00 | 0.00 | 0.00 | 86 | 1022.8 |
| 20260501193004 | 12 | 307 | 0.0 | 1.6 | 0.00 | 0.00 | 0.00 | 85 | 1022.7 |
| 20260501192503 | 12 | 305 | 0.0 | 1.6 | 0.00 | 0.00 | 0.00 | 84 | 1022.6 |
| 20260501192004 | 12 | 292 | 0.0 | 1.6 | 0.00 | 0.00 | 0.00 | 83 | 1022.6 |
| 20260501191503 | 12 | 0 | 0.0 | 0.0 | 0.00 | 0.00 | 0.00 | 81 | 1022.6 |
| 20260501191213 | 13 | 0 | 0.0 | 0.0 | 0.00 | 0.00 | 0.00 | 79 | 1022.4 |
| 20260501190504 | 13 | 0 | 0.0 | 0.0 | 0.00 | 0.00 | 0.00 | 77 | 1022.4 |
| 20260501190004 | 14 | 0 | 0.0 | 0.0 | 0.00 | 0.00 | 0.00 | 77 | 1022.3 |
| 20260501185714 | 14 | 0 | 0.0 | 0.0 | 0.00 | 0.00 | 0.00 | 76 | 1022.3 |
| 20260501185003 | 14 | 0 | 0.0 | 0.0 | 0.00 | 0.00 | 0.00 | 75 | 1022.2 |
| 20260501184504 | 14 | 0 | 0.0 | 0.0 | 0.00 | 0.00 | 0.00 | 74 | 1022.1 |
| 20260501184003 | 15 | 0 | 0.0 | 0.0 | 0.00 | 0.00 | 0.00 | 74 | 1022.1 |
| 20260501183503 | 15 | 0 | 0.0 | 0.0 | 0.00 | 0.00 | 0.00 | 74 | 1022.1 |
| 20260501183004 | 15 | 0 | 0.0 | 0.0 | 0.00 | 0.00 | 0.00 | 74 | 1022.1 |
| 20260501182503 | 15 | 0 | 0.0 | 0.0 | 0.00 | 0.00 | 0.00 | 74 | 1022.0 |
| 20260501182213 | 15 | 97 | 0.0 | 6.4 | 0.00 | 0.00 | 0.00 | 73 | 1022.0 |
| 20260501181713 | 15 | 106 | 3.2 | 6.4 | 0.00 | 0.00 | 0.00 | 72 | 1021.9 |
| 20260501181003 | 15 | 121 | 6.4 | 12.9 | 0.00 | 0.00 | 0.00 | 72 | 1021.9 |
| 20260501180714 | 15 | 125 | 6.4 | 12.9 | 0.00 | 0.00 | 0.00 | 72 | 1021.8 |
| 20260501180214 | 15 | 128 | 8.0 | 12.9 | 0.00 | 0.00 | 0.00 | 71 | 1021.9 |
| 20260501175503 | 15 | 126 | 6.4 | 12.9 | 0.00 | 0.00 | 0.00 | 70 | 1021.8 |
| 20260501175003 | 15 | 118 | 6.4 | 11.3 | 0.00 | 0.00 | 0.00 | 70 | 1021.7 |
| 20260501174504 | 16 | 112 | 4.8 | 11.3 | 0.00 | 0.00 | 0.00 | 69 | 1021.7 |
| 20260501174003 | 16 | 118 | 4.8 | 12.9 | 0.00 | 0.00 | 0.00 | 68 | 1021.7 |
| 20260501173713 | 16 | 123 | 6.4 | 14.5 | 0.00 | 0.00 | 0.00 | 68 | 1021.7 |
| 20260501173004 | 16 | 112 | 8.0 | 14.5 | 0.00 | 0.00 | 0.00 | 68 | 1021.6 |
| 20260501172503 | 16 | 110 | 6.4 | 12.9 | 0.00 | 0.00 | 0.00 | 67 | 1021.6 |
| 20260501172004 | 16 | 110 | 6.4 | 12.9 | 0.00 | 0.00 | 0.00 | 67 | 1021.6 |
| 20260501171504 | 16 | 99 | 8.0 | 12.9 | 0.00 | 0.00 | 0.00 | 66 | 1021.6 |
| 20260501171003 | 16 | 100 | 8.0 | 12.9 | 0.00 | 0.00 | 0.00 | 65 | 1021.6 |
| 20260501170503 | 16 | 101 | 8.0 | 12.9 | 0.00 | 0.00 | 0.00 | 65 | 1021.6 |
| 20260501170004 | 16 | 105 | 8.0 | 14.5 | 0.00 | 0.00 | 0.00 | 65 | 1021.5 |
| 20260501165504 | 16 | 104 | 8.0 | 14.5 | 0.00 | 0.00 | 0.00 | 65 | 1021.4 |
| 20260501165004 | 16 | 104 | 9.7 | 14.5 | 0.00 | 0.00 | 0.00 | 64 | 1021.4 |
| 20260501164503 | 16 | 119 | 9.7 | 14.5 | 0.00 | 0.00 | 0.00 | 64 | 1021.5 |
| 20260501164214 | 16 | 127 | 9.7 | 16.1 | 0.00 | 0.00 | 0.00 | 64 | 1021.4 |
| 20260501163503 | 17 | 143 | 8.0 | 16.1 | 0.00 | 0.00 | 0.00 | 63 | 1021.5 |
| 20260501163004 | 17 | 147 | 6.4 | 14.5 | 0.00 | 0.00 | 0.00 | 64 | 1021.3 |
| 20260501162504 | 17 | 146 | 6.4 | 14.5 | 0.00 | 0.00 | 0.00 | 64 | 1021.4 |
| 20260501162004 | 17 | 144 | 8.0 | 14.5 | 0.00 | 0.00 | 0.00 | 64 | 1021.3 |
| 20260501161503 | 17 | 146 | 8.0 | 14.5 | 0.00 | 0.00 | 0.00 | 63 | 1021.3 |
| 20260501161003 | 17 | 143 | 8.0 | 14.5 | 0.00 | 0.00 | 0.00 | 62 | 1021.4 |
| 20260501160503 | 17 | 141 | 8.0 | 16.1 | 0.00 | 0.00 | 0.00 | 62 | 1021.4 |
| 20260501160214 | 17 | 145 | 6.4 | 16.1 | 0.00 | 0.00 | 0.00 | 60 | 1021.4 |
| 20260501155504 | 17 | 148 | 8.0 | 14.5 | 0.00 | 0.00 | 0.00 | 63 | 1021.3 |
| 20260501155003 | 17 | 139 | 8.0 | 12.9 | 0.00 | 0.00 | 0.00 | 61 | 1021.3 |
| 20260501154003 | 17 | 158 | 3.2 | 9.7 | 0.00 | 0.00 | 0.00 | 59 | 1021.3 |
| 20260501153504 | 17 | 116 | 3.2 | 9.7 | 0.00 | 0.00 | 0.00 | 60 | 1021.3 |
| 20260501153004 | 17 | 109 | 3.2 | 9.7 | 0.00 | 0.00 | 0.00 | 58 | 1021.3 |
| 20260501152503 | 17 | 122 | 3.2 | 11.3 | 0.00 | 0.00 | 0.00 | 61 | 1021.3 |
| 20260501152213 | 17 | 113 | 4.8 | 11.3 | 0.00 | 0.00 | 0.00 | 59 | 1021.3 |
| 20260501151503 | 17 | 96 | 8.0 | 12.9 | 0.00 | 0.00 | 0.00 | 60 | 1021.4 |
| 20260501151004 | 17 | 96 | 8.0 | 12.9 | 0.00 | 0.00 | 0.00 | 60 | 1021.3 |
| 20260501150504 | 17 | 97 | 8.0 | 14.5 | 0.00 | 0.00 | 0.00 | 58 | 1021.3 |
| 20260501150004 | 17 | 94 | 8.0 | 16.1 | 0.00 | 0.00 | 0.00 | 57 | 1021.3 |
| 20260501145503 | 17 | 102 | 6.4 | 16.1 | 0.00 | 0.00 | 0.00 | 57 | 1021.3 |
| 20260501144503 | 18 | 113 | 6.4 | 12.9 | 0.00 | 0.00 | 0.00 | 57 | 1021.3 |
| 20260501144003 | 17 | 107 | 9.7 | 16.1 | 0.00 | 0.00 | 0.00 | 58 | 1021.3 |
| 20260501143714 | 17 | 105 | 9.7 | 17.7 | 0.00 | 0.00 | 0.00 | 58 | 1021.3 |
| 20260501143004 | 18 | 114 | 9.7 | 19.3 | 0.00 | 0.00 | 0.00 | 59 | 1021.4 |
| 20260501142721 | 17 | 118 | 9.7 | 19.3 | 0.00 | 0.00 | 0.00 | 59 | 1021.4 |